EW2458 Weather Reports


time (UTC)temp
C
wind
direction
speed
KPH
gust
KPH
rain 1hr
cm
rain 24hr
cm
rain mn
cm
humidity
%
barometer
mb
20260906123022 22 120 0.0 1.6 0.00 0.28 0.13 97 1012.1
20260906121621 22 120 0.0 1.6 0.00 0.28 0.13 97 1011.8
20260906120024 21 120 0.0 0.0 0.00 0.28 0.13 98 1011.7
20260906114526 21 120 0.0 0.0 0.00 0.28 0.13 98 1011.6
20260906113019 20 120 0.0 0.0 0.00 0.28 0.13 98 1011.4
20260906111518 20 113 1.6 3.2 0.00 0.28 0.13 97 1011.2
20260906110016 21 139 0.0 1.6 0.00 0.28 0.13 97 1011.2
20260906104517 21 141 0.0 3.2 0.00 0.28 0.13 98 1011.1
20260906103015 21 127 0.0 3.2 0.00 0.28 0.13 97 1011.0
20260906101512 21 145 0.0 1.6 0.00 0.28 0.13 97 1011.0
20260906100012 21 122 0.0 0.0 0.03 0.28 0.13 97 1011.2
20260906094511 21 122 0.0 1.6 0.03 0.28 0.13 97 1011.2
20260906093030 21 159 0.0 0.0 0.03 0.28 0.13 97 1011.3
20260906091509 21 159 0.0 1.6 0.03 0.28 0.13 97 1011.1
20260906090013 21 100 0.0 1.6 0.00 0.25 0.10 97 1010.9
20260906084510 22 132 0.0 1.6 0.00 0.25 0.10 97 1010.8
20260906083010 22 131 0.0 1.6 0.00 0.25 0.10 97 1010.7
20260906081504 22 352 0.0 1.6 0.00 0.25 0.10 97 1010.7
20260906080004 22 350 0.0 3.2 0.00 0.25 0.10 97 1010.7
20260906074506 22 149 0.0 1.6 0.00 0.25 0.10 96 1010.4
20260906073059 22 356 0.0 3.2 0.00 0.25 0.10 96 1010.9
20260906071557 22 158 0.0 0.0 0.00 0.25 0.10 96 1011.1
20260906070054 22 159 0.0 0.0 0.00 0.25 0.10 95 1011.6
20260906064553 22 128 0.0 1.6 0.00 0.25 0.10 95 1012.0
20260906063055 22 221 0.0 3.2 0.00 0.25 0.10 95 1012.0
20260906061601 22 247 0.0 3.2 0.03 0.25 0.10 95 1011.5
20260906054548 23 219 0.0 8.0 0.25 0.25 0.10 93 1012.0
20260906053055 23 255 1.6 6.4 0.25 0.25 0.10 93 1012.5
20260906051541 23 25 0.0 11.3 0.23 0.23 0.08 91 1012.9
20260906050038 24 333 9.7 17.7 0.15 0.15 0.00 89 1012.7
20260906044536 25 314 9.7 16.1 0.00 0.00 0.00 86 1011.9
20260906043037 24 335 6.4 11.3 0.00 0.00 0.00 90 1011.4
20260906041546 23 96 0.0 1.6 0.00 0.00 0.00 91 1010.9
20260906040036 23 120 0.0 4.8 0.00 0.00 0.00 92 1011.2
20260906034541 23 102 1.6 4.8 0.00 0.00 0.00 91 1011.4
20260906033036 23 139 0.0 1.6 0.00 0.00 0.00 91 1011.0
20260906031539 23 131 0.0 6.4 0.00 0.00 0.00 92 1010.9
20260906030039 24 120 0.0 3.2 0.00 0.00 0.00 91 1010.9
20260906024532 24 117 0.0 1.6 0.00 0.00 0.00 90 1010.8
20260906023033 25 122 3.2 6.4 0.00 0.00 0.00 89 1010.8
20260906021531 25 98 0.0 4.8 0.00 0.00 0.00 86 1010.6
20260906020032 26 96 0.0 3.2 0.00 0.00 0.00 82 1010.1
20260906014542 26 208 0.0 4.8 0.00 0.00 0.00 79 1009.9
20260906013030 27 128 1.6 8.0 0.00 0.00 0.00 78 1009.9
20260906011531 27 68 0.0 4.8 0.00 0.00 0.00 77 1010.2
20260906010054 26 349 0.0 4.8 0.00 0.00 0.00 80 1010.3
20260906004528 26 149 1.6 8.0 0.00 0.00 0.00 79 1010.0
20260906003027 27 106 1.6 4.8 0.00 0.00 0.00 77 1010.0
20260906001541 28 148 0.0 3.2 0.00 0.00 0.00 73 1009.8
20260906000027 28 43 0.0 0.0 0.00 0.00 0.00 70 1009.8
20260905234526 30 146 0.0 1.6 0.00 0.00 0.00 68 1009.8
20260905233025 30 152 1.6 4.8 0.00 0.00 0.00 66 1009.7
20260905231537 30 101 1.6 4.8 0.00 0.00 0.00 66 1009.6
20260905230025 30 82 1.6 8.0 0.00 0.00 0.00 65 1009.5
20260905224624 30 109 1.6 4.8 0.00 0.00 0.00 63 1009.5
20260905223034 30 114 0.0 11.3 0.00 0.00 0.00 65 1009.7
20260905221523 30 124 1.6 14.5 0.00 0.00 0.00 65 1010.0
20260905220027 30 107 11.3 19.3 0.00 0.00 0.00 63 1010.1
20260905214520 31 119 14.5 27.4 0.00 0.00 0.00 60 1010.1
20260905213021 34 119 17.7 32.2 0.00 0.00 0.00 55 1009.7
20260905211535 34 77 3.2 17.7 0.00 0.00 0.00 54 1009.6
20260905210020 35 124 8.0 20.9 0.00 0.00 0.00 52 1009.6
20260905204524 36 321 9.7 19.3 0.00 0.00 0.00 47 1009.3
20260905203029 36 248 3.2 9.7 0.00 0.00 0.00 48 1009.3
20260905201521 35 319 8.0 19.3 0.00 0.00 0.00 48 1009.6
20260905200011 35 304 9.7 16.1 0.00 0.00 0.00 49 1009.8
20260905194508 35 290 8.0 14.5 0.00 0.00 0.00 49 1010.1
20260905193008 35 30 8.0 16.1 0.00 0.00 0.00 51 1010.3
20260905191504 35 308 11.3 16.1 0.00 0.00 0.00 51 1010.7
20260905190002 35 276 6.4 16.1 0.00 0.00 0.00 50 1010.8
20260905184611 35 89 0.0 4.8 0.00 0.00 0.00 51 1010.9
20260905183112 35 359 6.4 14.5 0.00 0.00 0.00 52 1011.1
20260905181658 35 214 1.6 8.0 0.00 0.00 0.00 52 1011.3
20260905180057 35 53 3.2 19.3 0.00 0.00 0.00 53 1011.5
20260905174552 35 75 0.0 9.7 0.00 0.00 0.00 53 1011.7
20260905173050 34 352 9.7 14.5 0.00 0.00 0.00 56 1011.8
20260905171550 35 153 0.0 9.7 0.00 0.00 0.00 56 1012.0
20260905170050 34 58 0.0 4.8 0.00 0.00 0.00 60 1012.2
20260905164540 33 297 1.6 3.2 0.00 0.00 0.00 63 1012.4
20260905161533 31 290 1.6 8.0 0.00 0.00 0.00 70 1012.9
20260905160033 31 311 3.2 9.7 0.00 0.00 0.00 70 1012.9
20260905154532 31 39 1.6 6.4 0.00 0.00 0.00 68 1012.9
20260905153030 30 308 3.2 6.4 0.00 0.00 0.00 70 1013.0
20260905151535 30 280 0.0 4.8 0.00 0.00 0.00 72 1013.1
20260905150026 29 23 1.6 3.2 0.00 0.00 0.00 74 1013.1
20260905144530 29 138 0.0 0.0 0.00 0.00 0.00 77 1013.2
20260905143018 27 230 0.0 0.0 0.00 0.00 0.00 81 1013.3
20260905141515 27 124 0.0 0.0 0.00 0.00 0.00 82 1013.3
20260905140011 26 124 0.0 1.6 0.00 0.00 0.00 87 1013.4
20260905134507 25 31 0.0 1.6 0.00 0.00 0.00 89 1013.4
20260905133004 24 141 0.0 0.0 0.00 0.00 0.00 91 1013.5
20260905131620 23 141 0.0 1.6 0.00 0.00 0.00 93 1013.8
20260905130058 23 141 0.0 0.0 0.00 0.00 0.00 94 1013.8
20260905124556 22 141 0.0 0.0 0.00 0.00 0.00 96 1013.9